Tracking 35051 objects as of 17-Aug-2026
HD Live streaming from Space Station
objects crossing your sky now

STARLINK-3576

Track STARLINK-3576 now!
10-day predictions
STARLINK-3576 is classified as:


NORAD ID: 51883
Int'l Code: 2022-022AH
Launch date: March 3, 2022
Source: United States (US)
Launch site: AIR FORCE EASTERN TEST RANGE (AFETR)
Your satellite tracking list
Your tracking list is empty




NASA's NSSDC Master Catalog

Two Line Element Set (TLE):
1 51883U 22022AH  26228.74744938 -.00000594  00000-0 -64580-5 0  9997
2 51883  53.1625 351.8331 0001147  74.0193 286.0936 15.34395901247524
Source of the keplerian elements: AFSPC